Terug naar catalogus

IRIDIUM 160

ActiefCommunicatiePO
NORAD 43569·PAYLOAD·🇺🇸 United States

Gelanceerd Jul 25, 2018 vanaf Vandenberg Space Force Base

Loading…

Volgende Passages (komende 24 uur)

TLE

VersSource: CelesTrak SupGP

Epoch: Sep 14, 2026, 21:13 UTC

1 43569C 18061A   26257.88437500  .00000075  00000+0  26983-4 0  2570
2 43569  86.4013  19.2835 0002138  96.9828  67.9685 14.34218252    19

Volg IRIDIUM 160 in realtime met AllMySat

Download on the App Store